CZ-6A R/B

Satellite information

Favourite Embed

Satellite Type and Status

ROCKET BODYIN ORBIT

Key statistics

Satellite CZ-6A R/B at a glance.

Uptime

629

Days in orbit

Revolutions

≈ 14.3

Per day

Orbit

SSO

Sun Synchronous Orbit

Inclination

98.8

Latest

Satellite identification and parameters

Extended collection of information and parameters for CZ-6A R/B.

Object identification

Identified? True

Debris? False

Object name: CZ-6A R/B

International designator: 2024-058B

Object number (NORAD): 59344

Object ID (CCSDS): 59344

Country: PEOPLES REPUBLIC OF CHINA (PRC)

Current information (Y/N): Y

RCS size: LARGE

Orbital parameters

Period: 100.799 minutes

Inclination: 98.7996 deg

SMA: 7174.605 km

Apoapsis: 852.347 km

Periapsis: 740.593 km

RAAN: 8.7917 deg

Eccentricy: 0.00778814

Argument of periapsis: 334.8002 deg

Mean anomaly: 24.9388 deg

Mean motion: 14.28584048 rev/day

Mean motion (dot): 0.00000143 rev/day2

B* drag term: 0.000072965173 1/REarth

Two-line elements (TLE)

Creation date: Dec. 14, 2025, 6:24 p.m.

Reference frame: TEME

Reference center: EARTH

Epoch: Dec. 14, 2025, 8:08 a.m. UTC

TLE line 0: 0 CZ-6A R/B

TLE line 1: 1 59344U 24058B 25348.33937136 .00000143 00000-0 72965-4 0 9992

TLE line 2: 2 59344 98.7996 8.7917 0077881 334.8002 24.9388 14.28584048 89575

Live tracking on map

Real-time ground track for satellite CZ-6A R/B.

In-orbit conjunctions

A list of the most updated potential collisions computed for object CZ-6A R/B.

Target Orbit TCA Probability of collision Miss distance Type
FENGYUN 1C DEB SSO 2024-09-17 20:54:00 0.0005416703 782.0 (m) DEBRIS
NOAA 16 DEB SSO 2024-09-14 05:31:01 0.001368466 264.0 (m) DEBRIS
CZ-6A DEB SSO 2024-09-09 11:12:28 0.0003563368 29.0 (m) DEBRIS
CZ-6A DEB SSO 2024-05-31 13:18:20 0.0002098956 640.0 (m) DEBRIS

Associated space launch

Chinese satellite reported for atmospheric/ocean/environmental/spatial parameter research purposes, details TBD.

CZ-6A R/B was lifted into orbit during the mission ‘Long March 6A | Yunhai 3-02’, on board a Long March 6A space rocket.

The launch took place on March 26, 2024, 10:51 p.m. from Launch Complex 9A.

For more information about the launch, click the button.

Launch to space Long March 6A | Yunhai 3-02
Long March 6A | Yunhai 3-02

Agency: N/A

Status: Launch Successful

Launch date: March 26, 2024, 10:51 p.m. UTC

Rocket: Long March 6A

Launch pad: Launch Complex 9A

Location: Taiyuan Satellite Launch Center, People's Republic of China

...

Latest news about this satellite

News about space launch
Long March 6A launches second Yunhai-3 satellite

China added to its fleet of secretive meteorological satellites with the launch of Yunhai-3 (02) late Tuesday.

News about space launch
Launch Roundup: Delta IV Heavy swan song, Falcon 9 and Soyuz launches on tap for last week of March

A trio of Falcon 9 Starlink launches, a Falcon 9 non-Starlink launch involving an Eutelsat communications satellite, a Chinese launch, and a Russian Soyuz launch with a Resurs Earth observation satellite are scheduled for this week. However, the launch th...


Newsletter sign-up

Weekly statistics, charts and insights to help you stay on top of the space industry.